SUPERBIRD-B3

Last updated on Thu Oct 30 2025 00:02:51 GMT+0000 (Coordinated Universal Time)

1 43271U 18033A 25302.47614175 -.00000082 00000+0 00000+0 0 9998 2 43271 0.0168 252.6357 0000861 331.9412 146.9224 1.00271573 27746
UTC large
Height (km)
Speed (km/s)
/
Latitude / Longitude
Inclination (degrees)
Orbital Period (minutes)
Azimuth
Elevation
Range (km)
Doppler Factor

Next 0 passes for location: London (51.5072 / 0.1276)

Sorry there are no passes over London.